| time (UTC) | temp C | wind direction | speed KPH | gust KPH | rain 1hr cm | rain 24hr cm | rain mn cm | humidity % | barometer mb |
| 20260507180315 | 15 | 323 | 11.3 | 17.7 | 0.00 | 0.00 | 0.00 | 54 | 1010.2 |
| 20260507175817 | 15 | 317 | 11.3 | 19.3 | 0.00 | 0.00 | 0.00 | 54 | 1010.1 |
| 20260507175327 | 14 | 311 | 11.3 | 20.9 | 0.00 | 0.00 | 0.00 | 58 | 1010.2 |
| 20260507174810 | 13 | 327 | 12.9 | 20.9 | 0.00 | 0.00 | 0.00 | 58 | 1010.3 |
| 20260507174311 | 13 | 327 | 9.7 | 19.3 | 0.00 | 0.00 | 0.00 | 58 | 1010.3 |
| 20260507173814 | 13 | 317 | 4.8 | 20.9 | 0.00 | 0.00 | 0.00 | 59 | 1010.3 |
| 20260507173321 | 13 | 319 | 9.7 | 20.9 | 0.00 | 0.00 | 0.00 | 58 | 1010.4 |
| 20260507172826 | 13 | 278 | 12.9 | 24.1 | 0.00 | 0.00 | 0.00 | 58 | 1010.4 |
| 20260507172331 | 13 | 342 | 14.5 | 24.1 | 0.00 | 0.00 | 0.00 | 57 | 1010.4 |
| 20260507171814 | 13 | 286 | 16.1 | 22.5 | 0.00 | 0.00 | 0.00 | 55 | 1010.5 |
| 20260507171316 | 13 | 286 | 11.3 | 16.1 | 0.00 | 0.00 | 0.00 | 53 | 1010.5 |
| 20260507170818 | 13 | 338 | 8.0 | 17.7 | 0.00 | 0.00 | 0.00 | 50 | 1010.5 |
| 20260507170343 | 13 | 282 | 9.7 | 17.7 | 0.00 | 0.00 | 0.00 | 50 | 1010.5 |
| 20260507165827 | 13 | 270 | 8.0 | 16.1 | 0.00 | 0.00 | 0.00 | 50 | 1010.5 |
| 20260507165312 | 13 | 259 | 9.7 | 16.1 | 0.00 | 0.00 | 0.00 | 49 | 1010.6 |
| 20260507164839 | 13 | 233 | 9.7 | 14.5 | 0.00 | 0.00 | 0.00 | 47 | 1010.6 |
| 20260507164323 | 13 | 284 | 8.0 | 14.5 | 0.00 | 0.00 | 0.00 | 46 | 1010.6 |
| 20260507163825 | 13 | 327 | 9.7 | 16.1 | 0.00 | 0.00 | 0.00 | 45 | 1010.6 |
| 20260507163311 | 13 | 301 | 8.0 | 16.1 | 0.00 | 0.00 | 0.00 | 44 | 1010.7 |
| 20260507162813 | 13 | 246 | 3.2 | 11.3 | 0.00 | 0.00 | 0.00 | 43 | 1010.7 |
| 20260507162317 | 13 | 274 | 8.0 | 11.3 | 0.00 | 0.00 | 0.00 | 44 | 1010.7 |
| 20260507161820 | 13 | 287 | 4.8 | 14.5 | 0.00 | 0.00 | 0.00 | 44 | 1010.7 |
| 20260507161323 | 13 | 279 | 11.3 | 14.5 | 0.00 | 0.00 | 0.00 | 42 | 1010.8 |
| 20260507160810 | 13 | 290 | 6.4 | 12.9 | 0.00 | 0.00 | 0.00 | 45 | 1010.7 |
| 20260507160313 | 13 | 13 | 0.0 | 9.7 | 0.00 | 0.00 | 0.00 | 47 | 1010.6 |
| 20260507155815 | 12 | 313 | 0.0 | 8.0 | 0.00 | 0.00 | 0.00 | 49 | 1010.6 |
| 20260507155321 | 12 | 306 | 0.0 | 8.0 | 0.00 | 0.00 | 0.00 | 51 | 1010.8 |
| 20260507154824 | 11 | 275 | 3.2 | 6.4 | 0.00 | 0.00 | 0.00 | 51 | 1010.8 |
| 20260507154327 | 10 | 78 | 0.0 | 8.0 | 0.00 | 0.00 | 0.00 | 53 | 1009.9 |
| 20260507153810 | 10 | 74 | 1.6 | 8.0 | 0.00 | 0.00 | 0.00 | 52 | 1010.1 |
| 20260507153314 | 10 | 112 | 1.6 | 8.0 | 0.00 | 0.00 | 0.00 | 54 | 1010.1 |
| 20260507152816 | 10 | 140 | 0.0 | 0.0 | 0.00 | 0.00 | 0.00 | 53 | 1010.2 |
| 20260507152319 | 9 | 163 | 0.0 | 4.8 | 0.00 | 0.00 | 0.00 | 55 | 1010.5 |
| 20260507151821 | 8 | 124 | 0.0 | 4.8 | 0.00 | 0.00 | 0.00 | 58 | 1010.5 |
| 20260507151347 | 8 | 194 | 0.0 | 1.6 | 0.00 | 0.00 | 0.00 | 60 | 1010.6 |
| 20260507150808 | 7 | 278 | 0.0 | 3.2 | 0.00 | 0.00 | 0.00 | 60 | 1010.7 |
| 20260507150315 | 7 | 278 | 1.6 | 3.2 | 0.00 | 0.00 | 0.00 | 62 | 1010.8 |
| 20260507145837 | 7 | 281 | 0.0 | 1.6 | 0.00 | 0.00 | 0.00 | 60 | 1010.8 |
| 20260507145319 | 6 | 281 | 0.0 | 6.4 | 0.00 | 0.00 | 0.00 | 57 | 1010.8 |
| 20260507144806 | 6 | 281 | 0.0 | 6.4 | 0.00 | 0.00 | 0.00 | 57 | 1010.8 |
| 20260507144332 | 6 | 284 | 1.6 | 6.4 | 0.00 | 0.00 | 0.00 | 56 | 1010.8 |
| 20260507143834 | 6 | 90 | 0.0 | 1.6 | 0.00 | 0.00 | 0.00 | 57 | 1010.9 |
| 20260507143320 | 6 | 89 | 0.0 | 3.2 | 0.00 | 0.00 | 0.00 | 56 | 1010.8 |
| 20260507142827 | 6 | 89 | 0.0 | 1.6 | 0.00 | 0.00 | 0.00 | 55 | 1010.7 |
| 20260507142350 | 5 | 89 | 0.0 | 1.6 | 0.00 | 0.00 | 0.00 | 55 | 1010.6 |
| 20260507141832 | 5 | 89 | 0.0 | 0.0 | 0.00 | 0.00 | 0.00 | 56 | 1010.6 |
| 20260507141315 | 5 | 89 | 0.0 | 0.0 | 0.00 | 0.00 | 0.00 | 56 | 1010.6 |
| 20260507140818 | 5 | 89 | 0.0 | 0.0 | 0.00 | 0.00 | 0.00 | 56 | 1010.7 |
| 20260507140342 | 5 | 89 | 0.0 | 0.0 | 0.00 | 0.00 | 0.00 | 57 | 1010.6 |
| 20260507135823 | 5 | 89 | 0.0 | 0.0 | 0.00 | 0.00 | 0.00 | 59 | 1010.4 |
| 20260507135329 | 4 | 89 | 0.0 | 0.0 | 0.00 | 0.00 | 0.00 | 60 | 1010.4 |
| 20260507134811 | 4 | 89 | 0.0 | 3.2 | 0.00 | 0.00 | 0.00 | 61 | 1010.4 |
| 20260507134312 | 4 | 89 | 0.0 | 3.2 | 0.00 | 0.00 | 0.00 | 62 | 1010.4 |
| 20260507133819 | 3 | 89 | 0.0 | 0.0 | 0.00 | 0.00 | 0.00 | 63 | 1010.4 |
| 20260507133328 | 3 | 90 | 0.0 | 0.0 | 0.00 | 0.00 | 0.00 | 64 | 1010.5 |
| 20260507132809 | 3 | 90 | 0.0 | 1.6 | 0.00 | 0.00 | 0.00 | 65 | 1010.4 |
| 20260507132315 | 3 | 89 | 0.0 | 4.8 | 0.00 | 0.00 | 0.00 | 65 | 1010.4 |
| 20260507131841 | 3 | 89 | 1.6 | 6.4 | 0.00 | 0.00 | 0.00 | 65 | 1010.4 |
| 20260507131324 | 3 | 107 | 1.6 | 8.0 | 0.00 | 0.00 | 0.00 | 65 | 1010.4 |
| 20260507130826 | 4 | 69 | 1.6 | 8.0 | 0.00 | 0.00 | 0.00 | 65 | 1010.4 |
| 20260507130312 | 3 | 84 | 0.0 | 6.4 | 0.00 | 0.00 | 0.00 | 64 | 1010.5 |
| 20260507125817 | 3 | 205 | 0.0 | 6.4 | 0.00 | 0.00 | 0.00 | 66 | 1010.6 |
| 20260507125320 | 3 | 30 | 0.0 | 0.0 | 0.00 | 0.00 | 0.00 | 69 | 1010.4 |
| 20260507124823 | 2 | 30 | 0.0 | 0.0 | 0.00 | 0.00 | 0.00 | 70 | 1010.5 |
| 20260507124326 | 2 | 30 | 0.0 | 0.0 | 0.00 | 0.00 | 0.00 | 70 | 1010.3 |
| 20260507123813 | 1 | 30 | 0.0 | 0.0 | 0.00 | 0.00 | 0.00 | 71 | 1010.3 |
| 20260507123317 | 1 | 30 | 0.0 | 0.0 | 0.00 | 0.00 | 0.00 | 72 | 1010.3 |
| 20260507122820 | 1 | 12 | 0.0 | 0.0 | 0.00 | 0.00 | 0.00 | 72 | 1010.2 |
| 20260507122327 | 0 | 12 | 0.0 | 0.0 | 0.00 | 0.00 | 0.00 | 72 | 1010.2 |
| 20260507121829 | 0 | 12 | 0.0 | 0.0 | 0.00 | 0.00 | 0.00 | 73 | 1010.2 |
| 20260507121312 | 0 | 12 | 0.0 | 0.0 | 0.00 | 0.00 | 0.00 | 72 | 1010.3 |
| 20260507120815 | 0 | 12 | 0.0 | 0.0 | 0.00 | 0.00 | 0.00 | 72 | 1010.0 |
| 20260507120339 | 0 | 5 | 0.0 | 0.0 | 0.00 | 0.00 | 0.00 | 71 | 1010.1 |
| 20260507115819 | 0 | 5 | 0.0 | 0.0 | 0.00 | 0.00 | 0.00 | 72 | 1010.2 |
| 20260507115325 | 0 | 5 | 0.0 | 0.0 | 0.00 | 0.00 | 0.00 | 72 | 1010.2 |
| 20260507114828 | 0 | 5 | 0.0 | 0.0 | 0.00 | 0.00 | 0.00 | 73 | 1010.0 |
| 20260507114310 | 0 | 5 | 0.0 | 0.0 | 0.00 | 0.00 | 0.00 | 72 | 1010.0 |
| 20260507113818 | 0 | 5 | 0.0 | 0.0 | 0.00 | 0.00 | 0.00 | 72 | 1010.0 |
| 20260507113322 | 0 | 5 | 0.0 | 0.0 | 0.00 | 0.00 | 0.00 | 72 | 1009.8 |
| 20260507112823 | 0 | 5 | 0.0 | 0.0 | 0.00 | 0.00 | 0.00 | 73 | 1009.7 |
| 20260507112307 | 0 | 5 | 0.0 | 0.0 | 0.00 | 0.00 | 0.00 | 72 | 1009.8 |
| 20260507111812 | 0 | 5 | 0.0 | 4.8 | 0.00 | 0.00 | 0.00 | 72 | 1009.7 |
| 20260507111314 | 0 | 5 | 0.0 | 6.4 | 0.00 | 0.00 | 0.00 | 72 | 1009.8 |
| 20260507110821 | 0 | 5 | 1.6 | 6.4 | 0.00 | 0.00 | 0.00 | 72 | 1009.8 |
| 20260507110325 | 0 | 5 | 0.0 | 3.2 | 0.00 | 0.00 | 0.00 | 72 | 1009.9 |
| 20260507105825 | -1 | 5 | 0.0 | 3.2 | 0.00 | 0.00 | 0.00 | 72 | 1009.9 |
| 20260507105311 | -1 | 5 | 1.6 | 3.2 | 0.00 | 0.00 | 0.00 | 72 | 1009.8 |
| 20260507104816 | 0 | 5 | 0.0 | 1.6 | 0.00 | 0.00 | 0.00 | 71 | 1009.7 |
| 20260507104323 | 0 | 5 | 0.0 | 1.6 | 0.00 | 0.00 | 0.00 | 72 | 1009.9 |
| 20260507103846 | 0 | 5 | 0.0 | 3.2 | 0.00 | 0.00 | 0.00 | 72 | 1009.9 |
| 20260507103328 | 0 | 5 | 1.6 | 3.2 | 0.00 | 0.00 | 0.00 | 72 | 1009.8 |
| 20260507102829 | 0 | 5 | 0.0 | 4.8 | 0.00 | 0.00 | 0.00 | 72 | 1009.9 |
| 20260507102311 | 0 | 5 | 1.6 | 8.0 | 0.00 | 0.00 | 0.00 | 71 | 1009.8 |
| 20260507101815 | 0 | 5 | 1.6 | 8.0 | 0.00 | 0.00 | 0.00 | 71 | 1009.8 |
| 20260507101337 | 0 | 5 | 3.2 | 8.0 | 0.00 | 0.00 | 0.00 | 71 | 1009.8 |
| 20260507100843 | 0 | 31 | 0.0 | 0.0 | 0.00 | 0.00 | 0.00 | 71 | 1009.8 |
| 20260507100327 | 0 | 31 | 0.0 | 0.0 | 0.00 | 0.00 | 0.00 | 71 | 1008.9 |
| 20260507095831 | 0 | 31 | 0.0 | 0.0 | 0.00 | 0.00 | 0.00 | 70 | 1008.8 |
| 20260507095312 | 0 | 31 | 0.0 | 0.0 | 0.00 | 0.00 | 0.00 | 70 | 1008.8 |
| 20260507094813 | 0 | 82 | 0.0 | 0.0 | 0.00 | 0.00 | 0.00 | 70 | 1008.8 |
| 20260507094336 | 0 | 82 | 0.0 | 0.0 | 0.00 | 0.00 | 0.00 | 70 | 1008.9 |
| 20260507093817 | 0 | 82 | 0.0 | 0.0 | 0.00 | 0.00 | 0.00 | 70 | 1008.9 |
| 20260507093324 | 0 | 82 | 0.0 | 0.0 | 0.00 | 0.00 | 0.00 | 71 | 1008.8 |
| 20260507092825 | 0 | 82 | 0.0 | 0.0 | 0.00 | 0.00 | 0.00 | 71 | 1008.9 |
| 20260507092312 | 0 | 82 | 0.0 | 0.0 | 0.00 | 0.00 | 0.00 | 71 | 1008.9 |
| 20260507091814 | 0 | 82 | 0.0 | 0.0 | 0.00 | 0.00 | 0.00 | 71 | 1008.9 |
| 20260507091317 | 0 | 82 | 0.0 | 0.0 | 0.00 | 0.00 | 0.00 | 70 | 1009.0 |
| 20260507090819 | 0 | 82 | 0.0 | 0.0 | 0.00 | 0.00 | 0.00 | 70 | 1008.9 |
| 20260507090324 | 0 | 85 | 0.0 | 0.0 | 0.00 | 0.00 | 0.00 | 69 | 1008.9 |
| 20260507085827 | 0 | 100 | 0.0 | 0.0 | 0.00 | 0.00 | 0.00 | 69 | 1008.8 |
| 20260507085329 | 0 | 101 | 0.0 | 0.0 | 0.00 | 0.00 | 0.00 | 69 | 1008.7 |
| 20260507084815 | 0 | 101 | 0.0 | 0.0 | 0.00 | 0.00 | 0.00 | 69 | 1008.7 |
| 20260507084321 | 0 | 101 | 0.0 | 0.0 | 0.00 | 0.00 | 0.00 | 69 | 1008.7 |
| 20260507083843 | 0 | 101 | 0.0 | 0.0 | 0.00 | 0.00 | 0.00 | 69 | 1008.8 |
| 20260507083326 | 0 | 101 | 0.0 | 0.0 | 0.00 | 0.00 | 0.00 | 69 | 1008.8 |
| 20260507082828 | 0 | 101 | 0.0 | 0.0 | 0.00 | 0.00 | 0.00 | 68 | 1008.7 |
| 20260507082315 | 0 | 101 | 0.0 | 0.0 | 0.00 | 0.00 | 0.00 | 68 | 1008.9 |
| 20260507081818 | 0 | 101 | 0.0 | 0.0 | 0.00 | 0.00 | 0.00 | 67 | 1008.8 |
| 20260507081323 | 0 | 101 | 0.0 | 0.0 | 0.00 | 0.00 | 0.00 | 66 | 1008.9 |
| 20260507080824 | 1 | 101 | 0.0 | 0.0 | 0.00 | 0.00 | 0.00 | 66 | 1008.8 |
| 20260507080312 | 1 | 101 | 0.0 | 0.0 | 0.00 | 0.00 | 0.00 | 66 | 1008.7 |
| 20260507075817 | 1 | 101 | 0.0 | 0.0 | 0.00 | 0.00 | 0.00 | 66 | 1008.7 |
| 20260507075320 | 1 | 101 | 0.0 | 0.0 | 0.00 | 0.00 | 0.00 | 66 | 1008.7 |
| 20260507074822 | 1 | 101 | 0.0 | 0.0 | 0.00 | 0.00 | 0.00 | 66 | 1008.8 |
| 20260507074328 | 1 | 101 | 0.0 | 0.0 | 0.00 | 0.00 | 0.00 | 66 | 1008.8 |
| 20260507073810 | 1 | 161 | 0.0 | 0.0 | 0.00 | 0.00 | 0.00 | 65 | 1008.7 |
| 20260507073319 | 1 | 161 | 0.0 | 0.0 | 0.00 | 0.00 | 0.00 | 65 | 1008.8 |
| 20260507072841 | 1 | 169 | 0.0 | 0.0 | 0.00 | 0.00 | 0.00 | 63 | 1008.8 |
| 20260507072325 | 1 | 169 | 0.0 | 0.0 | 0.00 | 0.00 | 0.00 | 63 | 1008.9 |
| 20260507071831 | 1 | 169 | 0.0 | 1.6 | 0.00 | 0.00 | 0.00 | 61 | 1009.0 |
| 20260507071313 | 1 | 169 | 0.0 | 3.2 | 0.00 | 0.00 | 0.00 | 56 | 1009.1 |
| 20260507070818 | 1 | 169 | 0.0 | 3.2 | 0.00 | 0.00 | 0.00 | 51 | 1009.2 |
| 20260507070319 | 2 | 170 | 0.0 | 0.0 | 0.00 | 0.00 | 0.00 | 48 | 1009.2 |
| 20260507065817 | 2 | 201 | 0.0 | 0.0 | 0.00 | 0.00 | 0.00 | 49 | 1009.2 |
| 20260507065315 | 2 | 201 | 0.0 | 0.0 | 0.00 | 0.00 | 0.00 | 49 | 1009.3 |
| 20260507064839 | 2 | 201 | 0.0 | 0.0 | 0.00 | 0.00 | 0.00 | 49 | 1009.5 |
| 20260507064318 | 2 | 201 | 0.0 | 0.0 | 0.00 | 0.00 | 0.00 | 50 | 1009.4 |
| 20260507063838 | 2 | 201 | 0.0 | 0.0 | 0.00 | 0.00 | 0.00 | 50 | 1009.4 |
| 20260507063318 | 2 | 201 | 0.0 | 0.0 | 0.00 | 0.00 | 0.00 | 49 | 1009.5 |
| 20260507062839 | 2 | 201 | 0.0 | 0.0 | 0.00 | 0.00 | 0.00 | 48 | 1009.4 |
| 20260507062323 | 2 | 201 | 0.0 | 6.4 | 0.00 | 0.00 | 0.00 | 49 | 1009.4 |
| 20260507061826 | 2 | 201 | 3.2 | 6.4 | 0.00 | 0.00 | 0.00 | 48 | 1009.4 |
| 20260507061326 | 2 | 201 | 1.6 | 6.4 | 0.00 | 0.00 | 0.00 | 50 | 1009.5 |
| 20260507060808 | 2 | 201 | 1.6 | 6.4 | 0.00 | 0.00 | 0.00 | 51 | 1009.5 |
| 20260507060315 | 3 | 202 | 0.0 | 0.0 | 0.00 | 0.00 | 0.00 | 57 | 1009.4 |
| 20260507055817 | 3 | 202 | 0.0 | 0.0 | 0.00 | 0.00 | 0.00 | 59 | 1009.4 |
| 20260507055320 | 3 | 262 | 0.0 | 0.0 | 0.00 | 0.00 | 0.00 | 60 | 1009.4 |
| 20260507054823 | 3 | 262 | 0.0 | 0.0 | 0.00 | 0.00 | 0.00 | 59 | 1009.6 |
| 20260507054326 | 3 | 262 | 0.0 | 0.0 | 0.00 | 0.00 | 0.00 | 58 | 1009.6 |
| 20260507053811 | 4 | 262 | 0.0 | 0.0 | 0.00 | 0.00 | 0.00 | 58 | 1009.7 |
| 20260507053339 | 4 | 262 | 0.0 | 0.0 | 0.00 | 0.00 | 0.00 | 58 | 1009.6 |
| 20260507052819 | 4 | 262 | 0.0 | 0.0 | 0.00 | 0.00 | 0.00 | 57 | 1009.8 |
| 20260507052325 | 4 | 262 | 0.0 | 0.0 | 0.00 | 0.00 | 0.00 | 57 | 1010.0 |
| 20260507051848 | 4 | 262 | 0.0 | 0.0 | 0.00 | 0.00 | 0.00 | 56 | 1010.1 |
| 20260507051308 | 4 | 262 | 0.0 | 0.0 | 0.00 | 0.00 | 0.00 | 56 | 1010.1 |
| 20260507050835 | 5 | 267 | 0.0 | 0.0 | 0.00 | 0.00 | 0.00 | 56 | 1010.1 |
| 20260507050323 | 5 | 267 | 0.0 | 0.0 | 0.00 | 0.00 | 0.00 | 53 | 1010.1 |
| 20260507045808 | 5 | 267 | 0.0 | 0.0 | 0.00 | 0.00 | 0.00 | 52 | 1010.1 |
| 20260507045315 | 5 | 267 | 0.0 | 0.0 | 0.00 | 0.00 | 0.00 | 51 | 1010.1 |
| 20260507044841 | 5 | 267 | 0.0 | 0.0 | 0.00 | 0.00 | 0.00 | 49 | 1010.2 |
| 20260507044347 | 5 | 267 | 0.0 | 0.0 | 0.00 | 0.00 | 0.00 | 47 | 1010.2 |
| 20260507043808 | 5 | 267 | 0.0 | 0.0 | 0.00 | 0.00 | 0.00 | 47 | 1010.2 |
| 20260507043315 | 6 | 267 | 0.0 | 0.0 | 0.00 | 0.00 | 0.00 | 46 | 1010.1 |
| 20260507042816 | 6 | 267 | 0.0 | 0.0 | 0.00 | 0.00 | 0.00 | 46 | 1010.1 |
| 20260507042321 | 6 | 267 | 0.0 | 0.0 | 0.00 | 0.00 | 0.00 | 48 | 1010.1 |
| 20260507041829 | 6 | 267 | 0.0 | 0.0 | 0.00 | 0.00 | 0.00 | 46 | 1010.1 |
| 20260507041311 | 6 | 267 | 0.0 | 0.0 | 0.00 | 0.00 | 0.00 | 42 | 1010.1 |
| 20260507040834 | 6 | 267 | 0.0 | 0.0 | 0.00 | 0.00 | 0.00 | 44 | 1010.2 |
| 20260507040319 | 6 | 267 | 0.0 | 0.0 | 0.00 | 0.00 | 0.00 | 41 | 1010.2 |
| 20260507035821 | 7 | 267 | 0.0 | 0.0 | 0.00 | 0.00 | 0.00 | 41 | 1010.1 |
| 20260507035328 | 7 | 267 | 0.0 | 4.8 | 0.00 | 0.00 | 0.00 | 39 | 1010.2 |
| 20260507034831 | 7 | 267 | 0.0 | 6.4 | 0.00 | 0.00 | 0.00 | 36 | 1010.1 |
| 20260507034330 | 7 | 267 | 1.6 | 6.4 | 0.00 | 0.00 | 0.00 | 37 | 1010.1 |
| 20260507033812 | 7 | 268 | 3.2 | 6.4 | 0.00 | 0.00 | 0.00 | 38 | 1010.1 |
| 20260507033318 | 7 | 268 | 3.2 | 6.4 | 0.00 | 0.00 | 0.00 | 38 | 1010.1 |
| 20260507032819 | 7 | 271 | 4.8 | 6.4 | 0.00 | 0.00 | 0.00 | 39 | 1010.2 |
| 20260507032345 | 7 | 271 | 3.2 | 8.0 | 0.00 | 0.00 | 0.00 | 40 | 1010.2 |
| 20260507031828 | 7 | 280 | 6.4 | 8.0 | 0.00 | 0.00 | 0.00 | 41 | 1010.2 |
| 20260507031310 | 8 | 281 | 4.8 | 6.4 | 0.00 | 0.00 | 0.00 | 40 | 1010.3 |
| 20260507030815 | 8 | 281 | 1.6 | 6.4 | 0.00 | 0.00 | 0.00 | 39 | 1010.3 |
| 20260507030319 | 8 | 281 | 4.8 | 6.4 | 0.00 | 0.00 | 0.00 | 38 | 1010.4 |
| 20260507025844 | 8 | 281 | 3.2 | 6.4 | 0.00 | 0.00 | 0.00 | 38 | 1010.4 |
| 20260507025313 | 8 | 284 | 0.0 | 0.0 | 0.00 | 0.00 | 0.00 | 37 | 1010.4 |
| 20260507024816 | 8 | 284 | 0.0 | 0.0 | 0.00 | 0.00 | 0.00 | 37 | 1010.4 |
| 20260507024320 | 8 | 284 | 0.0 | 0.0 | 0.00 | 0.00 | 0.00 | 36 | 1010.5 |
| 20260507023824 | 9 | 284 | 0.0 | 0.0 | 0.00 | 0.00 | 0.00 | 35 | 1010.4 |
| 20260507023348 | 9 | 284 | 0.0 | 0.0 | 0.00 | 0.00 | 0.00 | 35 | 1010.5 |
| 20260507022830 | 9 | 284 | 0.0 | 0.0 | 0.00 | 0.00 | 0.00 | 34 | 1010.6 |
| 20260507022312 | 10 | 284 | 0.0 | 6.4 | 0.00 | 0.00 | 0.00 | 34 | 1010.7 |
| 20260507021815 | 10 | 282 | 0.0 | 8.0 | 0.00 | 0.00 | 0.00 | 33 | 1010.8 |
| 20260507021318 | 10 | 296 | 3.2 | 9.7 | 0.00 | 0.00 | 0.00 | 33 | 1010.9 |
| 20260507020841 | 10 | 315 | 3.2 | 9.7 | 0.00 | 0.00 | 0.00 | 32 | 1011.0 |
| 20260507020324 | 10 | 307 | 3.2 | 14.5 | 0.00 | 0.00 | 0.00 | 30 | 1011.0 |
| 20260507015822 | 10 | 299 | 3.2 | 14.5 | 0.00 | 0.00 | 0.00 | 29 | 1011.0 |
| 20260507015322 | 10 | 313 | 3.2 | 14.5 | 0.00 | 0.00 | 0.00 | 29 | 1011.1 |
| 20260507014825 | 11 | 306 | 6.4 | 16.1 | 0.00 | 0.00 | 0.00 | 28 | 1010.3 |
| 20260507014333 | 11 | 355 | 8.0 | 17.7 | 0.00 | 0.00 | 0.00 | 28 | 1010.3 |
| 20260507013832 | 11 | 297 | 9.7 | 17.7 | 0.00 | 0.00 | 0.00 | 27 | 1010.3 |
| 20260507013333 | 11 | 321 | 9.7 | 14.5 | 0.00 | 0.00 | 0.00 | 27 | 1010.4 |
| 20260507012832 | 11 | 294 | 4.8 | 14.5 | 0.00 | 0.00 | 0.00 | 28 | 1010.4 |
| 20260507012351 | 11 | 9 | 6.4 | 16.1 | 0.00 | 0.00 | 0.00 | 26 | 1010.4 |
| 20260507011830 | 11 | 360 | 6.4 | 22.5 | 0.00 | 0.00 | 0.00 | 25 | 1010.4 |
| 20260507011330 | 11 | 318 | 14.5 | 25.7 | 0.00 | 0.00 | 0.00 | 25 | 1010.5 |
| 20260507010850 | 11 | 288 | 16.1 | 25.7 | 0.00 | 0.00 | 0.00 | 26 | 1010.5 |
| 20260507010330 | 11 | 274 | 11.3 | 20.9 | 0.00 | 0.00 | 0.00 | 25 | 1010.4 |
| 20260507005830 | 11 | 281 | 11.3 | 20.9 | 0.00 | 0.00 | 0.00 | 25 | 1010.5 |
| 20260507005350 | 11 | 299 | 11.3 | 19.3 | 0.00 | 0.00 | 0.00 | 25 | 1010.5 |
| 20260507004850 | 11 | 298 | 12.9 | 20.9 | 0.00 | 0.00 | 0.00 | 26 | 1010.6 |
| 20260507004328 | 11 | 309 | 9.7 | 22.5 | 0.00 | 0.00 | 0.00 | 25 | 1010.6 |
| 20260507003831 | 11 | 310 | 11.3 | 29.0 | 0.00 | 0.00 | 0.00 | 25 | 1010.6 |
| 20260507003353 | 12 | 312 | 14.5 | 29.0 | 0.00 | 0.00 | 0.00 | 25 | 1010.6 |
| 20260507002830 | 11 | 272 | 9.7 | 22.5 | 0.00 | 0.00 | 0.00 | 26 | 1010.7 |
| 20260507002333 | 11 | 289 | 9.7 | 20.9 | 0.00 | 0.00 | 0.00 | 26 | 1010.7 |
| 20260507001818 | 11 | 273 | 8.0 | 25.7 | 0.00 | 0.00 | 0.00 | 25 | 1010.7 |
| 20260507001317 | 12 | 306 | 12.9 | 25.7 | 0.00 | 0.00 | 0.00 | 24 | 1010.7 |
| 20260507000818 | 12 | 280 | 14.5 | 30.6 | 0.00 | 0.00 | 0.00 | 25 | 1010.8 |
| 20260507000321 | 12 | 256 | 17.7 | 30.6 | 0.00 | 0.00 | 0.00 | 25 | 1010.9 |
| 20260506235821 | 12 | 320 | 16.1 | 24.1 | 0.00 | 0.00 | 0.00 | 26 | 1010.9 |
| 20260506235341 | 12 | 263 | 16.1 | 22.5 | 0.00 | 0.00 | 0.00 | 24 | 1010.9 |
| 20260506234825 | 12 | 320 | 11.3 | 22.5 | 0.00 | 0.00 | 0.00 | 25 | 1011.0 |
| 20260506234344 | 12 | 286 | 11.3 | 30.6 | 0.00 | 0.00 | 0.00 | 24 | 1011.0 |
| 20260506233822 | 12 | 295 | 12.9 | 30.6 | 0.00 | 0.00 | 0.00 | 25 | 1011.1 |
| 20260506233325 | 12 | 288 | 14.5 | 25.7 | 0.00 | 0.00 | 0.00 | 25 | 1011.1 |
| 20260506232845 | 12 | 328 | 12.9 | 20.9 | 0.00 | 0.00 | 0.00 | 25 | 1011.1 |
| 20260506232323 | 12 | 346 | 6.4 | 16.1 | 0.00 | 0.00 | 0.00 | 25 | 1011.3 |
| 20260506231822 | 12 | 289 | 9.7 | 25.7 | 0.00 | 0.00 | 0.00 | 24 | 1011.3 |
| 20260506231346 | 12 | 267 | 11.3 | 25.7 | 0.00 | 0.00 | 0.00 | 24 | 1011.5 |
| 20260506230846 | 12 | 272 | 16.1 | 22.5 | 0.00 | 0.00 | 0.00 | 24 | 1011.5 |
| 20260506230327 | 12 | 265 | 14.5 | 25.7 | 0.00 | 0.00 | 0.00 | 25 | 1011.6 |
| 20260506225828 | 12 | 290 | 12.9 | 25.7 | 0.00 | 0.00 | 0.00 | 25 | 1011.5 |
| 20260506225317 | 12 | 324 | 12.9 | 25.7 | 0.00 | 0.00 | 0.00 | 24 | 1011.8 |
| 20260506224816 | 11 | 284 | 8.0 | 29.0 | 0.00 | 0.00 | 0.00 | 26 | 1011.9 |
| 20260506224316 | 11 | 301 | 12.9 | 29.0 | 0.00 | 0.00 | 0.00 | 25 | 1012.1 |
| 20260506223816 | 11 | 226 | 14.5 | 22.5 | 0.00 | 0.00 | 0.00 | 25 | 1012.2 |
| 20260506223317 | 12 | 292 | 11.3 | 29.0 | 0.00 | 0.00 | 0.00 | 25 | 1012.4 |
| 20260506222815 | 12 | 271 | 9.7 | 30.6 | 0.00 | 0.00 | 0.00 | 25 | 1012.5 |
| 20260506222318 | 12 | 292 | 17.7 | 30.6 | 0.00 | 0.00 | 0.00 | 26 | 1012.5 |
| 20260506221821 | 12 | 279 | 17.7 | 29.0 | 0.00 | 0.00 | 0.00 | 24 | 1012.5 |
| 20260506221321 | 12 | 264 | 8.0 | 24.1 | 0.00 | 0.00 | 0.00 | 26 | 1012.5 |
| 20260506220822 | 12 | 301 | 9.7 | 16.1 | 0.00 | 0.00 | 0.00 | 26 | 1012.7 |
| 20260506220322 | 11 | 16 | 9.7 | 24.1 | 0.00 | 0.00 | 0.00 | 26 | 1012.7 |
| 20260506215821 | 11 | 240 | 14.5 | 24.1 | 0.00 | 0.00 | 0.00 | 26 | 1012.8 |
| 20260506215321 | 11 | 288 | 11.3 | 29.0 | 0.00 | 0.00 | 0.00 | 25 | 1012.8 |
| 20260506214844 | 11 | 271 | 16.1 | 29.0 | 0.00 | 0.00 | 0.00 | 26 | 1012.8 |
| 20260506214328 | 11 | 313 | 9.7 | 16.1 | 0.00 | 0.00 | 0.00 | 26 | 1012.8 |
| 20260506213811 | 11 | 297 | 4.8 | 16.1 | 0.00 | 0.00 | 0.00 | 25 | 1012.9 |
| 20260506213316 | 11 | 251 | 9.7 | 24.1 | 0.00 | 0.00 | 0.00 | 26 | 1012.9 |
| 20260506212815 | 11 | 284 | 8.0 | 24.1 | 0.00 | 0.00 | 0.00 | 25 | 1013.2 |
| 20260506212338 | 11 | 234 | 11.3 | 24.1 | 0.00 | 0.00 | 0.00 | 26 | 1013.4 |
| 20260506211817 | 11 | 225 | 14.5 | 25.7 | 0.00 | 0.00 | 0.00 | 25 | 1013.6 |
| 20260506211317 | 11 | 253 | 16.1 | 25.7 | 0.00 | 0.00 | 0.00 | 26 | 1013.8 |
| 20260506210816 | 11 | 227 | 9.7 | 19.3 | 0.00 | 0.00 | 0.00 | 27 | 1013.9 |
| 20260506210319 | 11 | 349 | 11.3 | 24.1 | 0.00 | 0.00 | 0.00 | 27 | 1013.9 |
| 20260506205820 | 11 | 302 | 14.5 | 24.1 | 0.00 | 0.00 | 0.00 | 27 | 1014.0 |
| 20260506205324 | 11 | 300 | 12.9 | 22.5 | 0.00 | 0.00 | 0.00 | 27 | 1014.1 |
| 20260506204826 | 11 | 260 | 12.9 | 30.6 | 0.00 | 0.00 | 0.00 | 26 | 1014.3 |
| 20260506204326 | 11 | 316 | 11.3 | 30.6 | 0.00 | 0.00 | 0.00 | 26 | 1014.3 |
| 20260506203830 | 10 | 225 | 8.0 | 20.9 | 0.00 | 0.00 | 0.00 | 27 | 1014.4 |
| 20260506203332 | 10 | 194 | 9.7 | 20.9 | 0.00 | 0.00 | 0.00 | 28 | 1014.6 |
| 20260506202834 | 10 | 267 | 1.6 | 24.1 | 0.00 | 0.00 | 0.00 | 26 | 1014.6 |
| 20260506202334 | 11 | 310 | 11.3 | 25.7 | 0.00 | 0.00 | 0.00 | 27 | 1014.7 |
| 20260506201814 | 11 | 304 | 12.9 | 25.7 | 0.00 | 0.00 | 0.00 | 28 | 1014.6 |
| 20260506201318 | 11 | 344 | 9.7 | 25.7 | 0.00 | 0.00 | 0.00 | 28 | 1014.7 |
| 20260506200838 | 10 | 9 | 17.7 | 24.1 | 0.00 | 0.00 | 0.00 | 30 | 1014.7 |
| 20260506200321 | 10 | 308 | 9.7 | 20.9 | 0.00 | 0.00 | 0.00 | 31 | 1014.8 |
| 20260506195823 | 10 | 220 | 16.1 | 20.9 | 0.00 | 0.00 | 0.00 | 29 | 1014.9 |
| 20260506195323 | 10 | 276 | 8.0 | 24.1 | 0.00 | 0.00 | 0.00 | 31 | 1015.0 |
| 20260506194824 | 10 | 281 | 12.9 | 24.1 | 0.00 | 0.00 | 0.00 | 31 | 1015.0 |
| 20260506194328 | 10 | 320 | 9.7 | 19.3 | 0.00 | 0.00 | 0.00 | 30 | 1015.1 |
| 20260506193826 | 9 | 320 | 3.2 | 20.9 | 0.00 | 0.00 | 0.00 | 30 | 1015.1 |
| 20260506193351 | 9 | 222 | 16.1 | 33.8 | 0.00 | 0.00 | 0.00 | 30 | 1015.1 |
| 20260506192833 | 9 | 250 | 20.9 | 33.8 | 0.00 | 0.00 | 0.00 | 30 | 1015.3 |
| 20260506192312 | 9 | 246 | 12.9 | 22.5 | 0.00 | 0.00 | 0.00 | 30 | 1015.4 |
| 20260506191816 | 9 | 259 | 6.4 | 29.0 | 0.00 | 0.00 | 0.00 | 32 | 1015.4 |
| 20260506191320 | 9 | 243 | 12.9 | 29.0 | 0.00 | 0.00 | 0.00 | 31 | 1015.7 |
| 20260506190822 | 8 | 295 | 6.4 | 29.0 | 0.00 | 0.00 | 0.00 | 33 | 1015.7 |
| 20260506190344 | 8 | 274 | 19.3 | 29.0 | 0.00 | 0.00 | 0.00 | 31 | 1016.0 |
| 20260506185821 | 8 | 236 | 9.7 | 17.7 | 0.00 | 0.00 | 0.00 | 34 | 1016.0 |
| 20260506185347 | 8 | 277 | 8.0 | 24.1 | 0.00 | 0.00 | 0.00 | 33 | 1016.0 |
| 20260506184825 | 8 | 304 | 14.5 | 24.1 | 0.00 | 0.00 | 0.00 | 34 | 1016.1 |
| 20260506184326 | 8 | 282 | 4.8 | 29.0 | 0.00 | 0.00 | 0.00 | 35 | 1016.2 |
| 20260506183811 | 8 | 306 | 12.9 | 29.0 | 0.00 | 0.00 | 0.00 | 33 | 1016.3 |
| 20260506183335 | 8 | 270 | 11.3 | 32.2 | 0.00 | 0.00 | 0.00 | 35 | 1016.3 |
| 20260506182834 | 8 | 336 | 14.5 | 32.2 | 0.00 | 0.00 | 0.00 | 34 | 1016.4 |
| 20260506182316 | 8 | 235 | 6.4 | 19.3 | 0.00 | 0.00 | 0.00 | 34 | 1016.4 |
| 20260506181819 | 8 | 213 | 12.9 | 24.1 | 0.00 | 0.00 | 0.00 | 32 | 1016.6 |
| 20260506181321 | 8 | 355 | 8.0 | 24.1 | 0.00 | 0.00 | 0.00 | 33 | 1016.7 |
| 20260506180820 | 8 | 311 | 12.9 | 24.1 | 0.00 | 0.00 | 0.00 | 35 | 1016.8 |